1513623600.54,34916,7.31,73052.0,-16.35,-45.27,-45.27,0,*68
1513623601.76,34917,7.31,73052.3,-16.33,-45.21,-45.13,0,*6E
1513623603.03,34918,7.31,73058.0,-16.35,-45.47,-45.21,0,*66
1513623604.28,34919,7.31,73056.3,-16.35,-45.21,-45.21,0,*67
1513623605.54,34920,7.31,73060.5,-16.35,-45.47,-45.41,0,*6B
1513623606.82,34921,7.31,73058.0,-16.35,-45.73,-45.47,0,*6B
1513623608.1,34922,7.31,73056.5,-16.35,-45.47,-45.53,0,*6A
1513623609.33,34923,7.31,73054.0,-16.35,-45.41,-45.41,0,*6E
1513623610.57,34924,7.31,73052.5,-16.35,-45.41,-45.41,0,*69
1513623611.78,34925,7.31,73052.0,-16.33,-45.33,-45.33,0,*6E
1513623613.02,34926,7.38,73054.3,-16.29,-45.41,-45.27,0,*66
1513623614.3,34927,7.31,73050.5,-16.35,-45.73,-45.47,0,*6D
1513623615.57,34928,7.31,73044.3,-16.35,-45.73,-45.53,0,*67
1513623616.78,34929,7.38,73048.5,-16.33,-45.61,-45.41,0,*60
1513623618.0,34930,7.31,73042.8,-16.33,-45.21,-45.33,0,*69
1513623619.24,34931,7.31,73042.8,-16.33,-45.47,-45.41,0,*6D
1513623620.48,34932,7.31,73042.8,-16.33,-45.47,-45.41,0,*6E
1513623621.7,34933,7.31,73044.0,-16.33,-45.21,-45.33,0,*6A
1513623622.9,34934,7.31,73042.5,-16.33,-45.33,-45.33,0,*6E
1513623624.14,34935,7.31,73042.0,-16.33,-45.47,-45.41,0,*69
1513623625.38,34936,7.31,73042.5,-16.33,-45.47,-45.41,0,*6A
1513623626.65,34937,7.31,73044.0,-16.35,-45.73,-45.53,0,*69
1513623627.88,34938,7.31,73048.0,-16.33,-45.87,-45.81,0,*64
1513623629.17,34939,7.31,73046.5,-16.35,-45.73,-45.73,0,*65
1513623630.39,34940,7.31,73046.0,-16.33,-45.67,-45.61,0,*6B
1513623631.62,34941,7.31,73038.0,-16.35,-45.95,-45.67,0,*67
1513623632.91,34942,7.31,73036.0,-16.35,-45.81,-45.73,0,*64
1513623634.15,34943,7.31,73040.0,-16.33,-45.87,-45.81,0,*68
1513623635.39,34944,7.31,73044.3,-16.35,-45.95,-45.87,0,*6C
1513623636.63,34945,7.31,73046.5,-16.33,-45.87,-45.81,0,*6E
1513623637.84,34946,7.31,73046.0,-16.33,-45.87,-45.87,0,*6B
1513623639.08,34947,7.38,73054.8,-16.35,-45.95,-45.87,0,*6F
1513623640.32,34948,7.31,73050.3,-16.33,-45.81,-45.61,0,*6B
1513623641.58,34949,7.31,73048.3,-16.35,-45.73,-45.67,0,*67
1513623642.8,34950,7.31,73050.5,-16.33,-45.67,-45.61,0,*6A
1513623644.03,34951,7.31,73052.0,-16.35,-45.41,-45.41,0,*6B
1513623645.26,34952,7.31,73050.8,-16.33,-45.53,-45.53,0,*6E
1513623646.49,34953,7.31,73054.0,-16.33,-45.73,-45.53,0,*6D
1513623647.75,34954,7.31,73048.5,-16.35,-45.73,-45.87,0,*65
1513623648.99,34955,7.31,73054.0,-16.33,-45.47,-45.41,0,*6F
1513623650.2,34956,7.31,73046.5,-16.33,-45.67,-45.67,0,*6A
1513623651.45,34957,7.31,73034.8,-16.35,-45.67,-45.53,0,*6A
1513623652.71,34958,7.31,73036.5,-16.35,-45.87,-45.73,0,*69
1513623653.95,34959,7.31,73038.5,-16.35,-45.87,-45.67,0,*6D
1513623655.2,34960,7.31,73042.0,-16.35,-45.73,-45.67,0,*6C
1513623656.49,34961,7.38,73042.5,-16.35,-45.73,-45.73,0,*68
1513623657.71,34962,7.38,73050.5,-16.33,-45.67,-45.61,0,*6B
1513623658.97,34963,7.31,73054.3,-16.33,-45.81,-45.81,0,*6C
1513623660.2,34964,7.31,73046.5,-16.33,-45.81,-45.61,0,*65
1513623661.47,34965,7.31,73044.3,-16.35,-45.87,-45.73,0,*67
1513623662.73,34966,7.31,73048.8,-16.35,-45.87,-45.73,0,*64
1513623663.99,34967,7.31,73048.8,-16.35,-45.95,-45.73,0,*66
1513623665.21,34968,7.31,73048.5,-16.37,-45.95,-45.87,0,*60
1513623666.42,34969,7.31,73050.5,-16.37,-45.95,-45.87,0,*61
1513623667.64,34970,7.31,73048.8,-16.37,-45.95,-45.87,0,*69
1513623668.88,34971,7.31,73050.3,-16.37,-46.07,-45.95,0,*63
1513623670.1,34972,7.31,73050.8,-16.37,-45.95,-46.01,0,*66
1513623671.34,34973,7.38,73054.5,-16.37,-45.95,-45.81,0,*6C
1513623672.62,34974,7.31,73048.8,-16.39,-45.95,-45.81,0,*65
1513623673.88,34975,7.31,73044.5,-16.39,-45.95,-45.73,0,*69
1513623675.12,34976,7.38,73048.0,-16.37,-45.87,-45.73,0,*67
1513623676.35,34977,7.31,73046.5,-16.37,-45.73,-45.67,0,*68
1513623677.56,34978,7.31,73044.8,-16.37,-45.67,-45.67,0,*62
1513623678.83,34979,7.31,73050.5,-16.39,-45.95,-45.81,0,*68
1513623680.12,34980,7.31,73050.3,-16.39,-45.81,-45.73,0,*66
1513623681.37,34981,7.31,73050.3,-16.39,-45.53,-45.53,0,*6A
1513623682.62,34982,7.31,73054.0,-16.39,-45.53,-45.61,0,*68
1513623683.87,34983,7.31,73054.8,-16.39,-45.61,-45.53,0,*69
1513623685.13,34984,7.31,73054.3,-16.37,-45.47,-45.47,0,*61
1513623686.43,34985,7.31,73050.0,-16.39,-45.47,-45.47,0,*6E
1513623687.64,34986,7.38,73052.5,-16.37,-45.41,-45.41,0,*63
1513623688.86,34987,7.31,73052.3,-16.37,-45.53,-45.41,0,*61
1513623690.07,34988,7.31,73050.5,-16.37,-45.67,-45.53,0,*6A
1513623691.31,34989,7.31,73048.0,-16.37,-45.67,-45.47,0,*6E
1513623692.54,34990,7.31,73048.0,-16.37,-45.67,-45.47,0,*66
1513623693.8,34991,7.38,73050.5,-16.37,-45.73,-45.73,0,*65
1513623695.01,34992,7.31,73048.8,-16.37,-45.87,-45.87,0,*66
1513623696.23,34993,7.31,73048.8,-16.37,-45.95,-45.87,0,*64
1513623697.47,34994,7.31,73046.3,-16.39,-45.95,-45.95,0,*6E
1513623698.74,34995,7.31,73054.5,-16.39,-45.95,-45.81,0,*6A
1513623700.01,34996,7.31,73050.0,-16.39,-45.95,-45.81,0,*69
1513623701.28,34997,7.31,73048.8,-16.39,-45.61,-45.73,0,*6E
1513623702.49,34998,7.31,73050.5,-16.37,-45.87,-45.67,0,*62
1513623703.78,34999,7.31,73054.5,-16.39,-45.81,-45.81,0,*63
1513623705.08,35000,7.31,73054.5,-16.39,-45.81,-45.81,0,*6B
1513623706.37,35001,7.31,73052.5,-16.39,-45.81,-45.81,0,*6A
1513623707.63,35002,7.31,73052.8,-16.39,-45.95,-45.73,0,*61
1513623708.92,35003,7.31,73056.3,-16.39,-45.81,-45.73,0,*65
1513623710.16,35004,7.31,73054.5,-16.37,-45.73,-45.53,0,*63
1513623711.39,35005,7.31,73052.5,-16.37,-45.87,-45.73,0,*6B
1513623712.63,35006,7.38,73052.3,-16.37,-45.87,-45.73,0,*68
1513623713.9,35007,7.38,73056.8,-16.39,-45.95,-45.81,0,*69
1513623715.14,35008,7.38,73056.0,-16.39,-45.95,-45.95,0,*63
1513623716.42,35009,7.31,73052.5,-16.39,-45.95,-45.81,0,*67
1513623717.7,35010,7.31,73054.8,-16.39,-45.81,-45.73,0,*67
1513623718.92,35011,7.31,73052.0,-16.37,-45.67,-45.53,0,*62
1513623720.17,35012,7.31,73054.0,-16.39,-45.61,-45.53,0,*69
1513623721.42,35013,7.31,73056.8,-16.39,-45.61,-45.53,0,*68
1513623722.71,35014,7.31,73056.8,-16.39,-45.73,-45.73,0,*6E
1513623723.97,35015,7.31,73054.3,-16.39,-45.81,-45.61,0,*61
1513623725.19,35016,7.31,73052.5,-16.41,-45.61,-45.61,0,*63
1513623726.44,35017,7.31,73052.8,-16.41,-45.53,-45.47,0,*67
1513623727.69,35018,7.31,73052.8,-16.39,-45.61,-45.53,0,*63
1513623728.94,35019,7.31,73054.5,-16.39,-45.61,-45.61,0,*63
1513623730.2,35020,7.31,73054.8,-16.41,-45.81,-45.73,0,*6B
1513623731.46,35021,7.31,73052.3,-16.39,-45.73,-45.61,0,*6B
1513623732.75,35022,7.31,73052.3,-16.39,-45.81,-45.73,0,*66
1513623734.02,35023,7.31,73054.8,-16.39,-45.81,-45.95,0,*6F
1513623735.28,35024,7.31,73054.5,-16.41,-45.73,-45.73,0,*62
1513623736.53,35025,7.31,73054.8,-16.39,-45.53,-45.53,0,*6C
1513623737.82,35026,7.31,73056.0,-16.39,-45.47,-45.47,0,*6F
1513623739.06,35027,7.31,73054.8,-16.37,-45.53,-45.47,0,*65
1513623740.33,35028,7.31,73054.3,-16.39,-45.73,-45.61,0,*62
1513623741.57,35029,7.31,73052.3,-16.39,-45.33,-45.33,0,*60
1513623742.81,35030,7.31,73054.0,-16.39,-45.13,-45.13,0,*68
1513623744.05,35031,7.31,73054.0,-16.39,-45.13,-45.13,0,*69
1513623745.32,35032,7.31,73056.8,-16.39,-45.13,-45.27,0,*6D
1513623746.56,35033,7.31,73054.0,-16.39,-45.13,-45.13,0,*6B
1513623747.84,35034,7.31,73056.3,-16.37,-45.27,-45.27,0,*62
1513623749.05,35035,7.31,73052.3,-16.37,-45.41,-45.41,0,*63
1513623750.33,35036,7.38,73054.3,-16.39,-45.27,-45.33,0,*6B
1513623751.57,35037,7.31,73052.3,-16.39,-45.13,-45.33,0,*6D
1513623752.81,35038,7.31,73058.0,-16.37,-45.07,-45.41,0,*6C
1513623754.05,35039,7.31,73054.5,-16.37,-45.41,-45.47,0,*69
1513623755.29,35040,7.31,73060.3,-16.39,-45.33,-45.33,0,*6F
1513623756.51,35041,7.31,73060.0,-16.37,-45.21,-45.41,0,*66
1513623757.74,35042,7.31,73056.8,-16.35,-45.41,-45.41,0,*61
1513623759.01,35043,7.31,73066.0,-16.35,-45.53,-45.47,0,*65
1513623760.26,35044,7.31,73060.8,-16.35,-45.53,-45.53,0,*67
1513623761.51,35045,7.31,73058.5,-16.35,-45.53,-45.67,0,*61
1513623762.75,35046,7.31,73060.5,-16.37,-45.47,-45.53,0,*62
1513623764.0,35047,7.31,73058.5,-16.35,-45.53,-45.53,0,*64
1513623765.24,35048,7.31,73056.0,-16.35,-45.67,-45.67,0,*6B
1513623766.48,35049,7.31,73052.0,-16.37,-45.47,-45.53,0,*6D
1513623767.74,35050,7.31,73056.8,-16.37,-45.47,-45.47,0,*60
1513623769.0,35051,7.31,73056.0,-16.37,-45.47,-45.47,0,*61
1513623770.25,35052,7.31,73056.5,-16.37,-45.53,-45.47,0,*67
1513623771.51,35053,7.31,73054.0,-16.37,-45.47,-45.47,0,*63
1513623772.74,35054,7.31,73054.5,-16.37,-45.41,-45.47,0,*62
1513623774.03,35055,7.31,73052.0,-16.35,-45.47,-45.47,0,*67
1513623775.29,35056,7.31,73052.8,-16.35,-45.67,-45.47,0,*66
1513623776.55,35057,7.31,73050.8,-16.35,-45.73,-45.67,0,*60
1513623777.84,35058,7.31,73048.0,-16.35,-45.47,-45.47,0,*6A
1513623779.1,35059,7.31,73050.5,-16.33,-45.47,-45.47,0,*6D
1513623780.37,35060,7.31,73050.0,-16.35,-45.95,-45.73,0,*69
1513623781.63,35061,7.31,73054.5,-16.35,-45.73,-45.67,0,*65
1513623782.86,35062,7.31,73052.3,-16.35,-45.67,-45.67,0,*63
1513623784.1,35063,7.31,73050.8,-16.35,-45.67,-45.67,0,*62
1513623785.35,35064,7.31,73052.0,-16.35,-45.53,-45.53,0,*65
1513623786.6,35065,7.31,73054.0,-16.35,-45.53,-45.53,0,*64
1513623787.86,35066,7.31,73054.0,-16.35,-45.73,-45.67,0,*62
1513623789.12,35067,7.31,73060.3,-16.35,-45.73,-45.67,0,*63
1513623790.36,35068,7.31,73060.0,-16.35,-45.67,-45.67,0,*69
1513623791.62,35069,7.31,73056.8,-16.35,-45.67,-45.47,0,*6A
1513623792.89,35070,7.31,73054.0,-16.35,-45.53,-45.47,0,*65
1513623794.15,35071,7.31,73056.5,-16.37,-45.47,-45.47,0,*63
1513623795.42,35072,7.31,73054.3,-16.35,-45.47,-45.53,0,*67
1513623796.69,35073,7.31,73050.0,-16.35,-45.53,-45.47,0,*66
1513623797.96,35074,7.31,73050.3,-16.35,-45.53,-45.47,0,*61
1513623799.22,35075,7.31,73054.8,-16.33,-45.47,-45.47,0,*63
1513623800.46,35076,7.38,73054.5,-16.35,-45.53,-45.67,0,*61
1513623801.71,35077,7.31,73050.8,-16.35,-45.53,-45.67,0,*60
1513623803.0,35078,7.31,73052.0,-16.35,-45.47,-45.47,0,*68
1513623804.23,35079,7.31,73052.8,-16.33,-45.47,-45.41,0,*69
1513623805.5,35080,7.31,73054.8,-16.35,-45.53,-45.47,0,*6A
1513623806.72,35081,7.31,73056.5,-16.33,-45.13,-45.21,0,*69
1513623808.0,35082,7.31,73056.0,-16.35,-45.27,-45.41,0,*6D
1513623809.24,35083,7.31,73052.8,-16.35,-45.41,-45.21,0,*6A
1513623810.46,35084,7.31,73052.0,-16.33,-44.99,-45.13,0,*6E
1513623811.68,35085,7.31,73052.3,-16.33,-45.21,-45.21,0,*6C
1513623812.94,35086,7.31,73052.3,-16.35,-45.41,-45.27,0,*69
1513623814.18,35087,7.31,73048.8,-16.31,-45.33,-45.33,0,*6C
1513623815.41,35088,7.31,73054.3,-16.31,-45.33,-45.33,0,*63
1513623816.65,35089,7.31,73050.3,-16.31,-45.33,-45.33,0,*62
1513623817.89,35090,7.31,73046.3,-16.31,-45.21,-45.33,0,*69
1513623819.13,35091,7.31,73050.8,-16.31,-45.33,-45.33,0,*6B
1513623820.34,35092,7.31,73048.0,-16.33,-44.99,-45.13,0,*69
1513623821.56,35093,7.31,73050.0,-16.33,-44.99,-45.13,0,*68
1513623822.77,35094,7.31,73050.0,-16.33,-45.13,-44.99,0,*6F
1513623824.05,35095,7.31,73052.5,-16.31,-44.79,-44.93,0,*6B
1513623825.28,35096,7.31,73052.0,-16.29,-44.87,-44.87,0,*65
1513623826.53,35097,7.31,73048.3,-16.29,-44.87,-44.93,0,*61
1513623827.81,35098,7.31,73046.8,-16.31,-44.79,-44.93,0,*66
1513623829.08,35099,7.31,73050.3,-16.29,-44.93,-45.07,0,*66
1513623830.3,35100,7.31,73046.0,-16.29,-44.99,-44.99,0,*6B
1513623831.55,35101,7.31,73044.8,-16.29,-44.87,-44.93,0,*6F
1513623832.79,35102,7.31,73040.5,-16.29,-45.07,-45.13,0,*6C
1513623834.03,35103,7.31,73046.3,-16.29,-45.13,-45.27,0,*6F
1513623835.26,35104,7.31,73040.3,-16.27,-45.13,-45.13,0,*61
1513623836.54,35105,7.31,73040.5,-16.23,-45.27,-45.21,0,*62
1513623837.8,35106,7.31,73040.8,-16.23,-45.21,-45.07,0,*63
1513623839.04,35107,7.31,73048.5,-16.27,-45.33,-45.33,0,*62
1513623840.27,35108,7.31,73044.0,-16.27,-45.13,-45.13,0,*6D
1513623841.52,35109,7.31,73042.8,-16.23,-44.87,-44.87,0,*68
1513623842.76,35110,7.31,73042.8,-16.27,-45.13,-45.13,0,*64
1513623844.02,35111,7.31,73046.5,-16.23,-45.07,-44.99,0,*67
1513623845.28,35112,7.31,73042.5,-16.27,-45.07,-45.13,0,*63
1513623846.53,35113,7.31,73036.5,-16.23,-45.21,-45.21,0,*63
1513623847.77,35114,7.31,73034.5,-16.21,-45.07,-45.21,0,*62
1513623849.01,35115,7.31,73034.3,-16.21,-45.07,-45.21,0,*63
1513623850.21,35116,7.31,73032.0,-16.21,-45.33,-45.21,0,*67
1513623851.42,35117,7.31,73034.0,-16.21,-45.33,-45.33,0,*65
1513623852.62,35118,7.31,73030.8,-16.21,-45.33,-45.33,0,*6A
1513623853.88,35119,7.31,73030.0,-16.23,-45.47,-45.33,0,*6A
1513623855.12,35120,7.31,73028.5,-16.21,-45.47,-45.53,0,*64
1513623856.36,35121,7.31,73028.8,-16.23,-45.67,-45.53,0,*65
1513623857.56,35122,7.31,73026.5,-16.21,-45.67,-45.67,0,*63
1513623858.8,35123,7.31,73038.0,-16.23,-45.67,-45.67,0,*60
1513623860.04,35124,7.31,73034.5,-16.23,-45.67,-45.53,0,*60
1513623861.3,35125,7.31,73030.8,-16.23,-45.47,-45.53,0,*63
1513623862.54,35126,7.31,73032.8,-16.21,-45.53,-45.47,0,*62
1513623863.8,35127,7.31,73034.8,-16.23,-45.53,-45.47,0,*61
1513623865.04,35128,7.31,73038.8,-16.23,-45.67,-45.67,0,*6B
1513623866.32,35129,7.31,73038.0,-16.23,-45.73,-45.73,0,*6A
1513623867.56,35130,7.31,73038.0,-16.23,-45.67,-45.53,0,*65
1513623868.79,35131,7.31,73038.0,-16.23,-45.67,-45.67,0,*63
1513623870.05,35132,7.31,73032.8,-16.23,-45.67,-45.73,0,*65
1513623871.33,35133,7.31,73036.3,-16.23,-45.73,-45.73,0,*61
1513623872.56,35134,7.31,73038.8,-16.23,-45.67,-45.67,0,*66
1513623873.83,35135,7.38,73042.0,-16.23,-45.53,-45.47,0,*62
1513623875.06,35136,7.31,73040.3,-16.23,-45.33,-45.33,0,*64
1513623876.29,35137,7.31,73040.8,-16.23,-45.33,-45.33,0,*65
1513623877.56,35138,7.31,73038.0,-16.23,-45.53,-45.47,0,*6F
1513623878.8,35139,7.31,73032.5,-16.23,-45.53,-45.67,0,*6C
1513623880.08,35140,7.31,73032.8,-16.23,-45.73,-45.73,0,*65
1513623881.34,35141,7.31,73032.3,-16.23,-45.73,-45.87,0,*6F
1513623882.62,35142,7.31,73034.0,-16.27,-45.73,-45.81,0,*6E
1513623883.89,35143,7.31,73028.8,-16.27,-45.81,-46.01,0,*69
1513623885.16,35144,7.31,73030.8,-16.27,-46.01,-46.15,0,*60
1513623886.4,35145,7.31,73026.3,-16.27,-45.95,-45.95,0,*64
1513623887.63,35146,7.31,73028.5,-16.23,-45.87,-45.87,0,*63
1513623888.89,35147,7.31,73038.5,-16.27,-45.81,-45.95,0,*63
1513623890.18,35148,7.31,73034.0,-16.27,-45.81,-45.81,0,*69
1513623891.42,35149,7.31,73044.0,-16.23,-45.67,-45.53,0,*6B
1513623892.68,35150,7.31,73046.3,-16.23,-45.87,-46.07,0,*6F
1513623893.96,35151,7.31,73036.5,-16.27,-45.73,-45.73,0,*61
1513623895.21,35152,7.31,73044.0,-16.27,-45.61,-45.53,0,*63
1513623896.44,35153,7.31,73044.5,-16.23,-45.33,-45.33,0,*67
1513623897.67,35154,7.31,73040.0,-16.27,-45.41,-45.41,0,*64
1513623898.91,35155,7.31,73036.0,-16.23,-45.33,-45.33,0,*61
1513623900.19,35156,7.31,73042.5,-16.27,-45.81,-45.73,0,*6B
1513623901.44,35157,7.31,73046.3,-16.23,-45.73,-45.67,0,*66
1513623902.7,35158,7.38,73048.8,-16.27,-45.81,-45.61,0,*66
1513623903.98,35159,7.31,73046.5,-16.27,-45.81,-45.73,0,*64
1513623905.22,35160,7.31,73040.8,-16.27,-45.13,-45.33,0,*61
1513623906.52,35161,7.31,73042.8,-16.27,-44.93,-45.07,0,*6E
1513623907.76,35162,7.31,73036.0,-16.23,-44.87,-44.99,0,*6A
1513623908.98,35163,7.31,73034.3,-16.21,-44.79,-44.99,0,*68
1513623910.27,35164,7.31,73032.3,-16.27,-44.93,-45.07,0,*6B
1513623911.51,35165,7.31,73034.8,-16.21,-45.21,-45.27,0,*66
1513623912.73,35166,7.31,73042.8,-16.21,-45.33,-45.47,0,*60
1513623913.94,35167,7.31,73042.3,-16.21,-45.67,-45.67,0,*62
1513623915.16,35168,7.31,73042.5,-16.21,-45.73,-45.67,0,*68
1513623916.39,35169,7.31,73040.8,-16.21,-45.73,-45.53,0,*6E
1513623917.64,35170,7.31,73038.8,-16.23,-45.53,-45.53,0,*66
1513623918.9,35171,7.31,73040.8,-16.23,-45.47,-45.53,0,*62
1513623920.17,35172,7.38,73024.5,-16.23,-45.47,-45.33,0,*67
1513623921.43,35173,7.31,73016.5,-16.23,-45.67,-45.73,0,*60
1513623922.66,35174,7.31,73026.0,-16.23,-45.67,-45.67,0,*62
1513623923.94,35175,7.31,73030.3,-16.23,-45.73,-45.73,0,*63
1513623925.16,35176,7.31,73028.8,-16.21,-45.73,-45.67,0,*67
1513623926.42,35177,7.31,73016.8,-16.23,-45.67,-45.73,0,*64
1513623927.66,35178,7.31,73022.3,-16.23,-45.67,-45.53,0,*69
1513623928.94,35179,7.31,73032.3,-16.23,-45.73,-45.73,0,*6F
1513623930.21,35180,7.31,73028.0,-16.23,-45.53,-45.47,0,*6C
1513623931.45,35181,7.31,73034.3,-16.27,-45.61,-45.61,0,*6C
1513623932.71,35182,7.31,73032.3,-16.27,-45.81,-45.95,0,*6A
1513623933.97,35183,7.31,73040.5,-16.23,-45.73,-45.87,0,*61
1513623935.25,35184,7.31,73042.0,-16.27,-45.73,-45.73,0,*69
1513623936.51,35185,7.31,73042.5,-16.27,-45.73,-45.61,0,*6B
1513623937.75,35186,7.38,73044.5,-16.27,-45.61,-45.61,0,*6B
1513623939.02,35187,7.31,73040.8,-16.23,-45.47,-45.53,0,*6B
1513623940.26,35188,7.31,73046.0,-16.23,-45.67,-45.53,0,*66
1513623941.54,35189,7.31,73042.0,-16.27,-45.81,-45.73,0,*69
1513623942.78,35190,7.31,73042.0,-16.23,-45.53,-45.67,0,*6F
1513623944.04,35191,7.31,73038.5,-16.23,-45.53,-45.47,0,*6C
1513623945.29,35192,7.31,73038.3,-16.27,-45.61,-45.53,0,*6F
1513623946.55,35193,7.31,73036.5,-16.23,-45.47,-45.53,0,*6E
1513623947.79,35194,7.31,73042.8,-16.23,-45.53,-45.67,0,*6B
1513623949.07,35195,7.31,73040.5,-16.23,-45.73,-45.73,0,*6D
1513623950.35,35196,7.31,73040.0,-16.23,-45.73,-45.73,0,*6E
1513623951.63,35197,7.31,73042.3,-16.27,-45.73,-45.73,0,*6B
1513623952.91,35198,7.31,73038.3,-16.27,-45.81,-45.73,0,*69
1513623954.2,35199,7.31,73042.0,-16.27,-45.81,-45.81,0,*65
1513623955.43,35200,7.31,73044.3,-16.23,-45.67,-45.67,0,*62
1513623956.67,35201,7.31,73046.5,-16.23,-45.67,-45.67,0,*63
1513623957.95,35202,7.31,73042.0,-16.23,-45.47,-45.47,0,*60
1513623959.2,35203,7.31,73040.8,-16.27,-45.53,-45.53,0,*65
1513623960.43,35204,7.31,73042.3,-16.27,-45.41,-45.41,0,*62
1513623961.67,35205,7.31,73042.5,-16.27,-45.33,-45.33,0,*63
1513623962.95,35206,7.31,73040.8,-16.23,-45.47,-45.47,0,*64
1513623964.22,35207,7.31,73042.8,-16.23,-45.53,-45.47,0,*60
1513623965.45,35208,7.31,73040.3,-16.23,-45.67,-45.67,0,*6A
1513623966.69,35209,7.31,73042.8,-16.23,-45.67,-45.53,0,*6C
1513623967.94,35210,7.31,73044.5,-16.23,-45.53,-45.53,0,*63
1513623969.2,35211,7.31,73042.8,-16.27,-45.73,-45.53,0,*64
1513623970.46,35212,7.31,73042.0,-16.27,-45.61,-45.73,0,*66
1513623971.72,35213,7.31,73042.8,-16.27,-45.61,-45.73,0,*67
1513623972.96,35214,7.31,73046.0,-16.23,-45.67,-45.67,0,*67
1513623974.21,35215,7.31,73046.0,-16.21,-45.47,-45.47,0,*64
1513623975.48,35216,7.31,73040.0,-16.23,-45.47,-45.53,0,*60
1513623976.74,35217,7.31,73042.5,-16.27,-45.73,-45.61,0,*63
1513623977.98,35218,7.31,73046.3,-16.23,-45.53,-45.67,0,*6C
1513623979.26,35219,7.31,73044.5,-16.23,-45.47,-45.47,0,*6A
1513623980.53,35220,7.31,73046.8,-16.23,-45.47,-45.53,0,*65
1513623981.79,35221,7.31,73044.8,-16.23,-45.67,-45.47,0,*63
1513623983.05,35222,7.31,73046.3,-16.23,-45.67,-45.73,0,*67
1513623984.29,35223,7.31,73046.8,-16.23,-45.53,-45.53,0,*63
1513623985.56,35224,7.31,73044.3,-16.23,-45.53,-45.47,0,*61
1513623986.84,35225,7.31,73044.0,-16.27,-45.73,-45.73,0,*61
1513623988.1,35226,7.31,73042.8,-16.23,-45.53,-45.47,0,*63
1513623989.35,35227,7.31,73044.0,-16.27,-45.53,-45.61,0,*62
1513623990.61,35228,7.31,73042.3,-16.23,-45.33,-45.47,0,*6B
1513623991.88,35229,7.31,73046.8,-16.27,-45.53,-45.81,0,*62
1513623993.14,35230,7.38,73052.3,-16.27,-45.73,-45.61,0,*66
1513623994.38,35231,7.31,73050.3,-16.27,-45.61,-45.53,0,*65
1513623995.61,35232,7.31,73050.0,-16.27,-45.41,-45.33,0,*62
1513623996.85,35233,7.31,73050.3,-16.27,-45.41,-45.33,0,*63
1513623998.08,35234,7.31,73048.8,-16.23,-45.33,-45.33,0,*65
1513623999.31,35235,7.31,73050.0,-16.23,-45.33,-45.33,0,*64
1513624000.55,35236,7.31,73050.5,-16.27,-45.41,-45.33,0,*66
1513624001.79,35237,7.31,73050.5,-16.27,-45.53,-45.41,0,*61
1513624003.05,35238,7.31,73050.5,-16.27,-45.41,-45.27,0,*6D
1513624004.32,35239,7.31,73050.8,-16.21,-45.27,-45.27,0,*6A
1513624005.61,35240,7.31,73052.0,-16.23,-45.47,-45.47,0,*66
1513624006.88,35241,7.31,73048.0,-16.27,-45.27,-45.33,0,*66
1513624008.14,35242,7.31,73044.5,-16.23,-45.47,-45.33,0,*67
1513624009.37,35243,7.31,73048.0,-16.21,-45.47,-45.33,0,*64
1513624010.63,35244,7.31,73052.0,-16.23,-45.33,-45.27,0,*67
1513624011.86,35245,7.31,73050.3,-16.23,-45.33,-45.33,0,*63
1513624013.15,35246,7.31,73050.8,-16.23,-45.47,-45.47,0,*60
1513624014.41,35247,7.31,73048.3,-16.23,-45.47,-45.53,0,*64
1513624015.65,35248,7.31,73050.5,-16.27,-45.41,-45.53,0,*69
1513624016.92,35249,7.31,73050.5,-16.23,-45.47,-45.53,0,*6A
1513624018.13,35250,7.31,73048.3,-16.21,-45.53,-45.67,0,*62
1513624019.36,35251,7.31,73052.5,-16.21,-45.47,-45.33,0,*67
1513624020.66,35252,7.31,73050.8,-16.23,-45.27,-45.27,0,*65
1513624021.96,35253,7.31,73052.0,-16.23,-45.27,-45.27,0,*64
1513624023.2,35254,7.31,73048.8,-16.21,-45.27,-45.33,0,*64
1513624024.4,35255,7.31,73050.8,-16.21,-45.33,-45.33,0,*60
1513624025.67,35256,7.31,73050.3,-16.21,-45.27,-45.47,0,*65
1513624026.89,35257,7.31,73048.5,-16.21,-45.33,-45.47,0,*61
1513624028.15,35258,7.31,73048.5,-16.21,-45.47,-45.27,0,*6B
1513624029.42,35259,7.31,73052.5,-16.23,-45.27,-45.33,0,*6B
1513624030.69,35260,7.31,73052.3,-16.21,-45.27,-45.27,0,*66
1513624031.96,35261,7.31,73052.3,-16.21,-45.27,-45.27,0,*67
1513624033.23,35262,7.31,73056.5,-16.19,-45.07,-45.07,0,*6F
1513624034.45,35263,7.31,73054.5,-16.19,-45.33,-45.33,0,*6E
1513624035.72,35264,7.31,73052.8,-16.21,-45.27,-45.27,0,*62
1513624037.0,35265,7.31,73052.3,-16.19,-45.27,-45.27,0,*68
1513624038.25,35266,7.31,73054.0,-16.19,-45.21,-45.27,0,*6D
1513624039.48,35267,7.31,73054.0,-16.19,-45.21,-45.21,0,*6A
1513624040.72,35268,7.31,73056.0,-16.19,-45.21,-45.07,0,*61
1513624041.95,35269,7.31,73054.0,-16.19,-45.21,-45.21,0,*64
1513624043.15,35270,7.31,73054.0,-16.21,-45.33,-45.33,0,*67
1513624044.39,35271,7.31,73048.0,-16.19,-45.33,-45.27,0,*68
1513624045.64,35272,7.31,73050.8,-16.19,-45.21,-45.27,0,*68
1513624046.89,35273,7.31,73054.5,-16.19,-45.21,-45.27,0,*69
1513624048.14,35274,7.31,73050.5,-16.17,-44.99,-45.21,0,*64
1513624049.41,35275,7.31,73046.8,-16.17,-45.41,-45.27,0,*67
1513624050.69,35276,7.31,73050.0,-16.17,-45.27,-45.41,0,*64
1513624051.93,35277,7.31,73052.0,-16.15,-45.47,-45.41,0,*61
1513624053.19,35278,7.31,73050.8,-16.17,-45.47,-45.41,0,*6C
1513624054.46,35279,7.31,73052.8,-16.17,-45.41,-45.27,0,*6B
1513624055.73,35280,7.31,73052.5,-16.15,-45.27,-45.27,0,*6F
1513624057.01,35281,7.31,73050.8,-16.17,-45.27,-45.21,0,*6A
1513624058.26,35282,7.31,73048.3,-16.15,-45.21,-45.27,0,*6B
1513624059.52,35283,7.31,73046.3,-16.15,-45.27,-45.21,0,*6A
1513624060.76,35284,7.31,73044.0,-16.15,-45.41,-45.27,0,*6B
1513624062.0,35285,7.31,73046.5,-16.17,-45.61,-45.61,0,*68
1513624063.29,35286,7.31,73046.5,-16.17,-45.47,-45.47,0,*6B
1513624064.53,35287,7.31,73046.3,-16.15,-45.41,-45.47,0,*6E
1513624065.79,35288,7.31,73048.3,-16.15,-45.47,-45.47,0,*67
1513624067.06,35289,7.31,73044.5,-16.17,-45.47,-45.61,0,*60
1513624068.3,35290,7.31,73042.0,-16.17,-45.67,-45.67,0,*6C
1513624069.54,35291,7.31,73036.3,-16.17,-45.61,-45.67,0,*6B
1513624070.76,35292,7.31,73034.5,-16.15,-45.67,-45.67,0,*6C
1513624072.0,35293,7.31,73028.0,-16.15,-45.67,-45.81,0,*65
1513624073.24,35294,7.31,73026.8,-16.15,-45.81,-45.87,0,*6C
1513624074.51,35295,7.31,73026.0,-16.17,-45.81,-46.01,0,*62
1513624075.8,35296,7.31,73028.8,-16.17,-45.81,-45.81,0,*6A
1513624077.01,35297,7.31,73028.5,-16.15,-45.67,-45.67,0,*69
1513624078.3,35298,7.31,73034.0,-16.17,-45.81,-45.81,0,*64
1513624079.54,35299,7.31,73032.3,-16.17,-45.87,-45.67,0,*6B
1513624080.8,35300,7.31,73034.5,-16.17,-45.81,-45.67,0,*6C
1513624082.04,35301,7.31,73038.0,-16.17,-45.67,-45.67,0,*65
1513624083.27,35302,7.31,73038.3,-16.17,-45.67,-45.67,0,*66
1513624084.49,35303,7.31,73034.8,-16.15,-45.67,-45.61,0,*63
1513624085.73,35304,7.31,73034.8,-16.17,-45.67,-45.67,0,*60
1513624086.99,35305,7.31,73036.8,-16.17,-45.81,-45.87,0,*67
1513624088.27,35306,7.31,73034.8,-16.17,-46.01,-46.07,0,*64
1513624089.56,35307,7.31,73038.0,-16.17,-45.81,-45.81,0,*63
1513624090.82,35308,7.31,73040.8,-16.19,-45.73,-45.73,0,*62
1513624092.06,35309,7.31,73040.5,-16.19,-45.73,-45.95,0,*6B
1513624093.31,35310,7.31,73040.8,-16.17,-45.87,-46.01,0,*68
1513624094.58,35311,7.31,73036.8,-16.17,-45.87,-46.07,0,*6F
1513624095.86,35312,7.31,73036.8,-16.19,-46.07,-46.15,0,*6A
1513624097.08,35313,7.31,73040.5,-16.19,-45.95,-45.95,0,*68
1513624098.35,35314,7.31,73038.0,-16.21,-46.15,-46.07,0,*67
1513624099.55,35315,7.31,73038.5,-16.21,-45.87,-45.95,0,*66